Project,Study,Ord_Occ,Event_Num,Date_Time_UTC,Date_Time_PST,Lat_Dec,Lon_Dec,Sta_ID,Line,Sta,Depth,Pressure,Temp0,Temp1,Salt0,CorrSalt0,Salt1,CorrSalt1,O2ml/L,AveCorrO2ml/L,StaCorrO2ml/L,FluorV,AveEstChl,StaEstChl,ISUSV,AveEstNO3,StaEstNO3,SigThetaTS0,SigThetaTS1,BAT,XMiss,SPAR,PAR,BTL_Depth,BTL_Temp,BTL_Salt,BTL_O2ml/L,BTL_Chl,BTL_Pha,BTL_NO3
CalCOFI,0701JD,038,370,23-Jan-2007 9:39:44 AM,23-Jan-2007 1:39:44 AM,33.15682,-120.00584,086.7 055.0,086.7,055.0,514.000,518.305,6.4305,6.4314,34.3126,34.3113,34.3105,34.3106,0.33426,0.37,0.40,0.0250,,,1.6878,39.05,38.208,26.9601,26.9583,0.4174,90.0922,5.3536e+00,9.9990e+03,514,6.43 ,34.310,  .35,,,38.8
CalCOFI,0701JD,038,370,23-Jan-2007 9:39:51 AM,23-Jan-2007 1:39:51 AM,33.15682,-120.00584,086.7 055.0,086.7,055.0,513.000,517.295,6.4318,6.4324,34.3126,34.3113,34.3105,34.3106,-9.990e-29,,0.40,0.0247,,,1.7133,39.80,38.995,26.9599,26.9582,0.4174,90.0923,5.4907e+00,9.9990e+03,,,,,,,
CalCOFI,0701JD,038,370,23-Jan-2007 9:39:51 AM,23-Jan-2007 1:39:51 AM,33.15682,-120.00584,086.7 055.0,086.7,055.0,512.000,516.285,6.4332,6.4344,34.3128,34.3115,34.3107,34.3108,-9.990e-29,,0.40,0.0254,,,1.6907,39.14,38.298,26.9598,26.9581,0.4184,90.0700,4.9609e+00,9.9990e+03,,,,,,,
CalCOFI,0701JD,038,370,23-Jan-2007 9:39:52 AM,23-Jan-2007 1:39:52 AM,33.15682,-120.00584,086.7 055.0,086.7,055.0,511.000,515.276,6.4353,6.4360,34.3126,34.3113,34.3107,34.3108,-9.990e-29,,0.40,0.0250,,,1.7121,39.77,38.958,26.9594,26.9578,0.4180,90.0790,5.1935e+00,9.9990e+03,,,,,,,
CalCOFI,0701JD,038,370,23-Jan-2007 9:39:53 AM,23-Jan-2007 1:39:53 AM,33.15682,-120.00584,086.7 055.0,086.7,055.0,510.000,514.266,6.4367,6.4374,34.3127,34.3114,34.3107,34.3108,-9.990e-29,,0.40,0.0250,,,1.7192,39.97,39.177,26.9593,26.9576,0.4181,90.0752,4.8127e+00,9.9990e+03,,,,,,,
CalCOFI,0701JD,038,370,23-Jan-2007 9:39:53 AM,23-Jan-2007 1:39:53 AM,33.15682,-120.00584,086.7 055.0,086.7,055.0,509.000,513.257,6.4378,6.4385,34.3127,34.3114,34.3107,34.3108,-9.990e-29,,0.40,0.0251,,,1.7165,39.90,39.093,26.9591,26.9575,0.4178,90.0836,4.6311e+00,9.9990e+03,,,,,,,
CalCOFI,0701JD,038,370,23-Jan-2007 9:39:54 AM,23-Jan-2007 1:39:54 AM,33.15682,-120.00584,086.7 055.0,086.7,055.0,508.000,512.247,6.4387,6.4391,34.3127,34.3114,34.3107,34.3108,0.33351,0.37,0.40,0.0253,,,1.7083,39.65,38.841,26.9590,26.9574,0.4177,90.0853,4.8008e+00,9.9990e+03,,,,,,,
CalCOFI,0701JD,038,370,23-Jan-2007 9:39:55 AM,23-Jan-2007 1:39:55 AM,33.15682,-120.00584,086.7 055.0,086.7,055.0,507.000,511.237,6.4408,6.4414,34.3126,34.3113,34.3106,34.3107,0.33388,0.37,0.40,0.0253,,,1.7079,39.64,38.828,26.9586,26.9570,0.4181,90.0771,5.5236e+00,9.9990e+03,,,,,,,
CalCOFI,0701JD,038,370,23-Jan-2007 9:39:56 AM,23-Jan-2007 1:39:56 AM,33.15682,-120.00584,086.7 055.0,086.7,055.0,506.000,510.228,6.4432,6.4441,34.3126,34.3113,34.3105,34.3106,0.33411,0.37,0.40,0.0253,,,1.6755,38.69,37.829,26.9583,26.9566,0.4173,90.0943,5.4976e+00,9.9990e+03,,,,,,,
CalCOFI,0701JD,038,370,23-Jan-2007 9:39:57 AM,23-Jan-2007 1:39:57 AM,33.15682,-120.00584,086.7 055.0,086.7,055.0,505.000,509.218,6.4475,6.4480,34.3123,34.3110,34.3103,34.3104,0.33541,0.37,0.40,0.0252,,,1.6868,39.02,38.178,26.9575,26.9558,0.4172,90.0957,5.1020e+00,9.9990e+03,,,,,,,
CalCOFI,0701JD,038,370,23-Jan-2007 9:39:58 AM,23-Jan-2007 1:39:58 AM,33.15682,-120.00584,086.7 055.0,086.7,055.0,504.000,508.209,6.4552,6.4556,34.3121,34.3108,34.3097,34.3098,0.33665,0.38,0.41,0.0254,,,1.7203,40.01,39.211,26.9563,26.9544,0.4172,90.0970,5.4959e+00,9.9990e+03,,,,,,,
CalCOFI,0701JD,038,370,23-Jan-2007 9:40:00 AM,23-Jan-2007 1:40:00 AM,33.15682,-120.00584,086.7 055.0,086.7,055.0,503.000,507.199,6.4674,6.4672,34.3112,34.3099,34.3090,34.3091,0.33826,0.38,0.41,0.0251,,,1.7053,39.57,38.748,26.9540,26.9523,0.4176,90.0871,5.3902e+00,9.9990e+03,,,,,,,
CalCOFI,0701JD,038,370,23-Jan-2007 9:40:01 AM,23-Jan-2007 1:40:01 AM,33.15682,-120.00584,086.7 055.0,086.7,055.0,502.000,506.190,6.4759,6.4760,34.3104,34.3091,34.3085,34.3086,0.33879,0.38,0.41,0.0250,,,1.7022,39.48,38.652,26.9523,26.9508,0.4169,90.1039,4.6713e+00,9.9990e+03,,,,,,,
CalCOFI,0701JD,038,370,23-Jan-2007 9:40:02 AM,23-Jan-2007 1:40:02 AM,33.15682,-120.00584,086.7 055.0,086.7,055.0,501.000,505.180,6.4788,6.4792,34.3103,34.3090,34.3084,34.3085,0.33939,0.38,0.41,0.0249,,,1.6994,39.39,38.566,26.9518,26.9502,0.4176,90.0880,5.3188e+00,9.9990e+03,,,,,,,
CalCOFI,0701JD,038,370,23-Jan-2007 9:40:03 AM,23-Jan-2007 1:40:03 AM,33.15682,-120.00584,086.7 055.0,086.7,055.0,500.000,504.170,6.4792,6.4797,34.3102,34.3089,34.3085,34.3086,0.34071,0.38,0.41,0.0252,,,1.6819,38.88,38.027,26.9517,26.9502,0.4171,90.0984,5.2093e+00,9.9990e+03,,,,,,,
CalCOFI,0701JD,038,370,23-Jan-2007 9:40:04 AM,23-Jan-2007 1:40:04 AM,33.15682,-120.00584,086.7 055.0,086.7,055.0,499.000,503.161,6.4795,6.4800,34.3101,34.3088,34.3084,34.3085,0.34103,0.38,0.41,0.0246,,,1.6936,39.22,38.387,26.9515,26.9501,0.4170,90.1004,5.1835e+00,9.9990e+03,,,,,,,
CalCOFI,0701JD,038,370,23-Jan-2007 9:40:05 AM,23-Jan-2007 1:40:05 AM,33.15682,-120.00584,086.7 055.0,086.7,055.0,498.000,502.151,6.4797,6.4801,34.3101,34.3088,34.3082,34.3083,0.34161,0.38,0.41,0.0247,,,1.6943,39.24,38.409,26.9515,26.9499,0.4170,90.1008,5.1491e+00,9.9990e+03,,,,,,,
CalCOFI,0701JD,038,370,23-Jan-2007 9:40:06 AM,23-Jan-2007 1:40:06 AM,33.15682,-120.00584,086.7 055.0,086.7,055.0,497.000,501.142,6.4797,6.4804,34.3099,34.3086,34.3080,34.3081,0.34207,0.38,0.41,0.0247,,,1.6788,38.79,37.931,26.9513,26.9497,0.4178,90.0827,5.2096e+00,9.9990e+03,,,,,,,
CalCOFI,0701JD,038,370,23-Jan-2007 9:40:07 AM,23-Jan-2007 1:40:07 AM,33.15682,-120.00584,086.7 055.0,086.7,055.0,496.000,500.132,6.4798,6.4806,34.3099,34.3086,34.3079,34.3080,-9.990e-29,,0.41,0.0250,,,1.6618,38.29,37.407,26.9513,26.9496,0.4179,90.0798,5.1948e+00,9.9990e+03,,,,,,,
CalCOFI,0701JD,038,370,23-Jan-2007 9:40:09 AM,23-Jan-2007 1:40:09 AM,33.15682,-120.00584,086.7 055.0,086.7,055.0,495.000,499.123,6.4810,6.4812,34.3097,34.3084,34.3079,34.3080,-9.990e-29,,0.41,0.0252,,,1.6773,38.74,37.885,26.9509,26.9495,0.4178,90.0826,5.3008e+00,9.9990e+03,,,,,,,
CalCOFI,0701JD,038,370,23-Jan-2007 9:40:10 AM,23-Jan-2007 1:40:10 AM,33.15682,-120.00584,086.7 055.0,086.7,055.0,494.000,498.113,6.4811,6.4817,34.3096,34.3083,34.3077,34.3078,0.33864,0.38,0.41,0.0250,,,1.6865,39.01,38.168,26.9508,26.9493,0.4173,90.0929,4.8865e+00,9.9990e+03,,,,,,,
CalCOFI,0701JD,038,370,23-Jan-2007 9:40:11 AM,23-Jan-2007 1:40:11 AM,33.15682,-120.00584,086.7 055.0,086.7,055.0,493.000,497.104,6.4814,6.4818,34.3096,34.3083,34.3079,34.3080,0.34217,0.38,0.41,0.0251,,,1.7024,39.48,38.659,26.9508,26.9494,0.4181,90.0752,5.0079e+00,9.9990e+03,,,,,,,
CalCOFI,0701JD,038,370,23-Jan-2007 9:40:12 AM,23-Jan-2007 1:40:12 AM,33.15682,-120.00584,086.7 055.0,086.7,055.0,492.000,496.094,6.4820,6.4825,34.3093,34.3080,34.3076,34.3077,0.34226,0.38,0.41,0.0249,,,1.7225,40.07,39.278,26.9505,26.9490,0.4176,90.0873,5.3522e+00,9.9990e+03,,,,,,,
CalCOFI,0701JD,038,370,23-Jan-2007 9:40:12 AM,23-Jan-2007 1:40:12 AM,33.15682,-120.00584,086.7 055.0,086.7,055.0,491.000,495.084,6.4825,6.4829,34.3093,34.3080,34.3076,34.3077,0.34328,0.38,0.41,0.0249,,,1.6910,39.15,38.307,26.9504,26.9490,0.4173,90.0947,5.1190e+00,9.9990e+03,,,,,,,
CalCOFI,0701JD,038,370,23-Jan-2007 9:40:13 AM,23-Jan-2007 1:40:13 AM,33.15682,-120.00584,086.7 055.0,086.7,055.0,490.000,494.075,6.4825,6.4830,34.3092,34.3079,34.3076,34.3077,0.34410,0.39,0.41,0.0250,,,1.6569,38.15,37.256,26.9503,26.9489,0.4176,90.0876,5.0288e+00,9.9990e+03,,,,,,,
CalCOFI,0701JD,038,370,23-Jan-2007 9:40:14 AM,23-Jan-2007 1:40:14 AM,33.15682,-120.00584,086.7 055.0,086.7,055.0,489.000,493.065,6.4827,6.4832,34.3087,34.3074,34.3070,34.3071,0.34540,0.39,0.42,0.0249,,,1.6876,39.05,38.202,26.9499,26.9484,0.4181,90.0755,4.9385e+00,9.9990e+03,,,,,,,
CalCOFI,0701JD,038,370,23-Jan-2007 9:40:16 AM,23-Jan-2007 1:40:16 AM,33.15682,-120.00584,086.7 055.0,086.7,055.0,488.000,492.056,6.4843,6.4848,34.3077,34.3064,34.3058,34.3059,0.34734,0.39,0.42,0.0249,,,1.7264,40.19,39.399,26.9488,26.9473,0.4175,90.0886,5.4892e+00,9.9990e+03,,,,,,,
CalCOFI,0701JD,038,370,23-Jan-2007 9:40:17 AM,23-Jan-2007 1:40:17 AM,33.15682,-120.00584,086.7 055.0,086.7,055.0,487.000,491.046,6.4853,6.4858,34.3070,34.3057,34.3052,34.3053,0.35006,0.39,0.42,0.0249,,,1.6982,39.36,38.529,26.9482,26.9466,0.4174,90.0929,4.8769e+00,9.9990e+03,,,,,,,
CalCOFI,0701JD,038,370,23-Jan-2007 9:40:18 AM,23-Jan-2007 1:40:18 AM,33.15682,-120.00584,086.7 055.0,086.7,055.0,486.000,490.037,6.4844,6.4849,34.3061,34.3048,34.3040,34.3041,0.35188,0.39,0.42,0.0253,,,1.6929,39.20,38.366,26.9475,26.9459,0.4181,90.0751,5.5276e+00,9.9990e+03,,,,,,,
CalCOFI,0701JD,038,370,23-Jan-2007 9:40:19 AM,23-Jan-2007 1:40:19 AM,33.15682,-120.00584,086.7 055.0,086.7,055.0,485.000,489.027,6.4866,6.4870,34.3048,34.3035,34.3030,34.3031,0.35512,0.40,0.43,0.0250,,,1.6814,38.87,38.011,26.9462,26.9447,0.4173,90.0948,4.7263e+00,9.9990e+03,,,,,,,
CalCOFI,0701JD,038,370,23-Jan-2007 9:40:20 AM,23-Jan-2007 1:40:20 AM,33.15682,-120.00584,086.7 055.0,086.7,055.0,484.000,488.018,6.4929,6.4938,34.3042,34.3029,34.3021,34.3022,0.35680,0.40,0.43,0.0250,,,1.6777,38.76,37.897,26.9449,26.9431,0.4167,90.1071,4.9775e+00,9.9990e+03,,,,,,,
CalCOFI,0701JD,038,370,23-Jan-2007 9:40:21 AM,23-Jan-2007 1:40:21 AM,33.15682,-120.00584,086.7 055.0,086.7,055.0,483.000,487.009,6.5067,6.5084,34.3039,34.3026,34.3015,34.3016,0.35909,0.40,0.43,0.0251,,,1.6694,38.51,37.641,26.9429,26.9407,0.4177,90.0855,5.1648e+00,9.9990e+03,,,,,,,
CalCOFI,0701JD,038,370,23-Jan-2007 9:40:22 AM,23-Jan-2007 1:40:22 AM,33.15682,-120.00584,086.7 055.0,086.7,055.0,482.000,485.999,6.5228,6.5227,34.3039,34.3026,34.3021,34.3022,0.35959,0.40,0.43,0.0257,,,1.6959,39.29,38.458,26.9407,26.9393,0.4177,90.0858,5.0030e+00,9.9990e+03,,,,,,,
CalCOFI,0701JD,038,370,23-Jan-2007 9:40:23 AM,23-Jan-2007 1:40:23 AM,33.15682,-120.00584,086.7 055.0,086.7,055.0,481.000,484.989,6.5224,6.5234,34.3039,34.3026,34.3023,34.3024,0.36017,0.40,0.43,0.0249,,,1.7146,39.84,39.035,26.9408,26.9394,0.4181,90.0753,4.8338e+00,9.9990e+03,,,,,,,
CalCOFI,0701JD,038,370,23-Jan-2007 9:40:24 AM,23-Jan-2007 1:40:24 AM,33.15682,-120.00584,086.7 055.0,086.7,055.0,480.000,483.980,6.5252,6.5269,34.3043,34.3030,34.3024,34.3025,0.36042,0.41,0.44,0.0246,,,1.6933,39.21,38.378,26.9407,26.9390,0.4172,90.0954,4.7032e+00,9.9990e+03,,,,,,,
CalCOFI,0701JD,038,370,23-Jan-2007 9:40:25 AM,23-Jan-2007 1:40:25 AM,33.15682,-120.00584,086.7 055.0,086.7,055.0,479.000,482.971,6.5318,6.5329,34.3048,34.3035,34.3029,34.3030,0.35976,0.40,0.43,0.0248,,,1.6853,38.98,38.131,26.9402,26.9386,0.4177,90.0849,4.8560e+00,9.9990e+03,,,,,,,
CalCOFI,0701JD,038,370,23-Jan-2007 9:40:26 AM,23-Jan-2007 1:40:26 AM,33.15682,-120.00584,086.7 055.0,086.7,055.0,478.000,481.961,6.5376,6.5396,34.3048,34.3035,34.3030,34.3031,0.36043,0.41,0.44,0.0250,,,1.6846,38.96,38.110,26.9394,26.9378,0.4193,90.0498,4.7507e+00,9.9990e+03,,,,,,,
CalCOFI,0701JD,038,370,23-Jan-2007 9:40:27 AM,23-Jan-2007 1:40:27 AM,33.15682,-120.00584,086.7 055.0,086.7,055.0,477.000,480.952,6.5444,6.5453,34.3052,34.3039,34.3032,34.3033,0.36016,0.40,0.43,0.0250,,,1.7364,40.48,39.707,26.9388,26.9372,0.4203,90.0265,4.8332e+00,9.9990e+03,,,,,,,
CalCOFI,0701JD,038,370,23-Jan-2007 9:40:28 AM,23-Jan-2007 1:40:28 AM,33.15682,-120.00584,086.7 055.0,086.7,055.0,476.000,479.942,6.5473,6.5476,34.3049,34.3036,34.3032,34.3033,0.36132,0.41,0.44,0.0254,,,1.7197,39.99,39.192,26.9383,26.9369,0.4175,90.0901,4.9664e+00,9.9990e+03,,,,,,,
CalCOFI,0701JD,038,370,23-Jan-2007 9:40:29 AM,23-Jan-2007 1:40:29 AM,33.15682,-120.00584,086.7 055.0,086.7,055.0,475.000,478.933,6.5490,6.5503,34.3051,34.3038,34.3033,34.3034,0.36195,0.41,0.44,0.0254,,,1.6616,38.28,37.401,26.9381,26.9365,0.4179,90.0805,5.1446e+00,9.9990e+03,,,,,,,
CalCOFI,0701JD,038,370,23-Jan-2007 9:40:30 AM,23-Jan-2007 1:40:30 AM,33.15682,-120.00584,086.7 055.0,086.7,055.0,474.000,477.923,6.5520,6.5534,34.3050,34.3037,34.3032,34.3033,0.36142,0.41,0.44,0.0252,,,1.7211,40.03,39.235,26.9377,26.9360,0.4176,90.0862,5.3888e+00,9.9990e+03,,,,,,,
CalCOFI,0701JD,038,370,23-Jan-2007 9:40:31 AM,23-Jan-2007 1:40:31 AM,33.15682,-120.00584,086.7 055.0,086.7,055.0,473.000,476.914,6.5549,6.5557,34.3050,34.3037,34.3033,34.3034,0.36182,0.41,0.44,0.0249,,,1.6955,39.28,38.446,26.9372,26.9358,0.4179,90.0804,5.1640e+00,9.9990e+03,,,,,,,
CalCOFI,0701JD,038,370,23-Jan-2007 9:40:32 AM,23-Jan-2007 1:40:32 AM,33.15682,-120.00584,086.7 055.0,086.7,055.0,472.000,475.904,6.5566,6.5580,34.3050,34.3037,34.3032,34.3033,0.36241,0.41,0.44,0.0248,,,1.6965,39.31,38.477,26.9370,26.9354,0.4178,90.0838,5.3459e+00,9.9990e+03,,,,,,,
CalCOFI,0701JD,038,370,23-Jan-2007 9:40:33 AM,23-Jan-2007 1:40:33 AM,33.15682,-120.00584,086.7 055.0,086.7,055.0,471.000,474.895,6.5613,6.5615,34.3050,34.3037,34.3032,34.3033,0.36427,0.41,0.44,0.0252,,,1.6883,39.07,38.224,26.9364,26.9349,0.4179,90.0805,5.3422e+00,9.9990e+03,,,,,,,
CalCOFI,0701JD,038,370,23-Jan-2007 9:40:34 AM,23-Jan-2007 1:40:34 AM,33.15682,-120.00584,086.7 055.0,086.7,055.0,470.000,473.886,6.5700,6.5698,34.3049,34.3036,34.3029,34.3030,0.36853,0.42,0.45,0.0250,,,1.6909,39.14,38.304,26.9351,26.9336,0.4178,90.0823,4.9898e+00,9.9990e+03,,,,,,,
CalCOFI,0701JD,038,370,23-Jan-2007 9:40:36 AM,23-Jan-2007 1:40:36 AM,33.15682,-120.00584,086.7 055.0,086.7,055.0,469.000,472.876,6.6045,6.6033,34.3042,34.3029,34.3013,34.3014,0.37315,0.42,0.45,0.0253,,,1.6832,38.92,38.067,26.9301,26.9279,0.4180,90.0786,5.3391e+00,9.9990e+03,,,,,,,
CalCOFI,0701JD,038,370,23-Jan-2007 9:40:37 AM,23-Jan-2007 1:40:37 AM,33.15682,-120.00584,086.7 055.0,086.7,055.0,468.000,471.867,6.6296,6.6229,34.3016,34.3003,34.3005,34.3006,0.37734,0.43,0.46,0.0253,,,1.6873,39.04,38.193,26.9246,26.9246,0.4185,90.0663,5.2588e+00,9.9990e+03,,,,,,,
CalCOFI,0701JD,038,370,23-Jan-2007 9:40:38 AM,23-Jan-2007 1:40:38 AM,33.15682,-120.00584,086.7 055.0,086.7,055.0,467.000,470.857,6.6328,6.6300,34.3025,34.3012,34.3002,34.3003,0.38020,0.43,0.46,0.0252,,,1.6669,38.44,37.564,26.9249,26.9234,0.4188,90.0596,5.2543e+00,9.9990e+03,,,,,,,
CalCOFI,0701JD,038,370,23-Jan-2007 9:40:39 AM,23-Jan-2007 1:40:39 AM,33.15682,-120.00584,086.7 055.0,086.7,055.0,466.000,469.848,6.6368,6.6376,34.3015,34.3002,34.3000,34.3001,0.38047,0.43,0.46,0.0249,,,1.6726,38.61,37.740,26.9236,26.9223,0.4183,90.0721,4.9112e+00,9.9990e+03,,,,,,,
CalCOFI,0701JD,038,370,23-Jan-2007 9:40:40 AM,23-Jan-2007 1:40:40 AM,33.15682,-120.00584,086.7 055.0,086.7,055.0,465.000,468.839,6.6399,6.6412,34.3014,34.3001,34.2998,34.2999,0.38279,0.43,0.46,0.0253,,,1.6751,38.68,37.817,26.9231,26.9217,0.4193,90.0487,5.3428e+00,9.9990e+03,,,,,,,
CalCOFI,0701JD,038,370,23-Jan-2007 9:40:40 AM,23-Jan-2007 1:40:40 AM,33.15682,-120.00584,086.7 055.0,086.7,055.0,464.000,467.829,6.6423,6.6427,34.3013,34.3000,34.2998,34.2999,0.38335,0.43,0.46,0.0247,,,1.6767,38.73,37.866,26.9227,26.9214,0.4193,90.0496,5.0874e+00,9.9990e+03,,,,,,,
CalCOFI,0701JD,038,370,23-Jan-2007 9:40:41 AM,23-Jan-2007 1:40:41 AM,33.15682,-120.00584,086.7 055.0,086.7,055.0,463.000,466.820,6.6450,6.6453,34.3011,34.2998,34.2995,34.2996,0.38427,0.43,0.46,0.0248,,,1.6657,38.40,37.527,26.9221,26.9208,0.4185,90.0659,5.1489e+00,9.9990e+03,,,,,,,
CalCOFI,0701JD,038,370,23-Jan-2007 9:40:42 AM,23-Jan-2007 1:40:42 AM,33.15682,-120.00584,086.7 055.0,086.7,055.0,462.000,465.810,6.6471,6.6476,34.3009,34.2996,34.2995,34.2996,0.38512,0.44,0.47,0.0250,,,1.6786,38.78,37.925,26.9217,26.9205,0.4181,90.0761,5.2757e+00,9.9990e+03,,,,,,,
CalCOFI,0701JD,038,370,23-Jan-2007 9:40:44 AM,23-Jan-2007 1:40:44 AM,33.15682,-120.00584,086.7 055.0,086.7,055.0,461.000,464.801,6.6474,6.6487,34.3008,34.2995,34.2992,34.2993,0.38533,0.44,0.47,0.0250,,,1.6598,38.23,37.345,26.9215,26.9201,0.4195,90.0439,5.3547e+00,9.9990e+03,,,,,,,
CalCOFI,0701JD,038,370,23-Jan-2007 9:40:45 AM,23-Jan-2007 1:40:45 AM,33.15682,-120.00584,086.7 055.0,086.7,055.0,460.000,463.792,6.6498,6.6500,34.3005,34.2992,34.2990,34.2991,0.38692,0.44,0.47,0.0250,,,1.6589,38.20,37.317,26.9210,26.9198,0.4187,90.0618,5.5245e+00,9.9990e+03,,,,,,,
CalCOFI,0701JD,038,370,23-Jan-2007 9:40:46 AM,23-Jan-2007 1:40:46 AM,33.15682,-120.00584,086.7 055.0,086.7,055.0,459.000,462.782,6.6520,6.6521,34.3005,34.2992,34.2990,34.2991,0.38663,0.44,0.47,0.0253,,,1.6686,38.49,37.616,26.9207,26.9195,0.4179,90.0808,5.0613e+00,9.9990e+03,,,,,,,
CalCOFI,0701JD,038,370,23-Jan-2007 9:40:47 AM,23-Jan-2007 1:40:47 AM,33.15682,-120.00584,086.7 055.0,086.7,055.0,458.000,461.773,6.6553,6.6561,34.3003,34.2990,34.2987,34.2988,0.38744,0.44,0.47,0.0253,,,1.6739,38.65,37.780,26.9201,26.9187,0.4186,90.0659,4.6325e+00,9.9990e+03,,,,,,,
CalCOFI,0701JD,038,370,23-Jan-2007 9:40:48 AM,23-Jan-2007 1:40:48 AM,33.15682,-120.00584,086.7 055.0,086.7,055.0,457.000,460.764,6.6576,6.6582,34.3002,34.2989,34.2987,34.2988,0.38683,0.44,0.47,0.0249,,,1.6784,38.78,37.919,26.9197,26.9184,0.4182,90.0747,5.1269e+00,9.9990e+03,,,,,,,
CalCOFI,0701JD,038,370,23-Jan-2007 9:40:49 AM,23-Jan-2007 1:40:49 AM,33.15682,-120.00584,086.7 055.0,086.7,055.0,456.000,459.754,6.6589,6.6597,34.3001,34.2988,34.2985,34.2986,0.38707,0.44,0.47,0.0250,,,1.6619,38.29,37.410,26.9194,26.9181,0.4178,90.0816,4.9382e+00,9.9990e+03,,,,,,,
CalCOFI,0701JD,038,370,23-Jan-2007 9:40:50 AM,23-Jan-2007 1:40:50 AM,33.15682,-120.00584,086.7 055.0,086.7,055.0,455.000,458.745,6.6600,6.6608,34.3001,34.2988,34.2985,34.2986,0.38680,0.44,0.47,0.0251,,,1.6801,38.83,37.971,26.9192,26.9178,0.4183,90.0722,5.1687e+00,9.9990e+03,,,,,,,
CalCOFI,0701JD,038,370,23-Jan-2007 9:40:51 AM,23-Jan-2007 1:40:51 AM,33.15682,-120.00584,086.7 055.0,086.7,055.0,454.000,457.736,6.6634,6.6641,34.2999,34.2986,34.2983,34.2984,0.38730,0.44,0.47,0.0258,,,1.6784,38.78,37.919,26.9186,26.9173,0.4182,90.0736,4.9923e+00,9.9990e+03,,,,,,,
CalCOFI,0701JD,038,370,23-Jan-2007 9:40:52 AM,23-Jan-2007 1:40:52 AM,33.15682,-120.00584,086.7 055.0,086.7,055.0,453.000,456.726,6.6655,6.6658,34.2996,34.2983,34.2982,34.2983,0.38655,0.44,0.47,0.0247,,,1.6552,38.10,37.203,26.9181,26.9170,0.4182,90.0733,5.0402e+00,9.9990e+03,,,,,,,
CalCOFI,0701JD,038,370,23-Jan-2007 9:40:53 AM,23-Jan-2007 1:40:53 AM,33.15682,-120.00584,086.7 055.0,086.7,055.0,452.000,455.717,6.6665,6.6670,34.2997,34.2984,34.2983,34.2984,0.38701,0.44,0.47,0.0251,,,1.6526,38.02,37.123,26.9181,26.9169,0.4172,90.0966,5.1747e+00,9.9990e+03,,,,,,,
CalCOFI,0701JD,038,370,23-Jan-2007 9:40:54 AM,23-Jan-2007 1:40:54 AM,33.15682,-120.00584,086.7 055.0,086.7,055.0,451.000,454.708,6.6695,6.6699,34.2996,34.2983,34.2981,34.2982,0.38624,0.44,0.47,0.0252,,,1.6731,38.62,37.755,26.9175,26.9163,0.4183,90.0713,5.3882e+00,9.9990e+03,,,,,,,
CalCOFI,0701JD,038,370,23-Jan-2007 9:40:55 AM,23-Jan-2007 1:40:55 AM,33.15682,-120.00584,086.7 055.0,086.7,055.0,450.000,453.698,6.6734,6.6744,34.2994,34.2981,34.2980,34.2981,0.38691,0.44,0.47,0.0247,,,1.6874,39.04,38.196,26.9169,26.9156,0.4179,90.0804,4.9426e+00,9.9990e+03,,,,,,,
CalCOFI,0701JD,038,370,23-Jan-2007 9:40:56 AM,23-Jan-2007 1:40:56 AM,33.15682,-120.00584,086.7 055.0,086.7,055.0,449.000,452.689,6.6768,6.6766,34.2993,34.2980,34.2979,34.2980,0.38729,0.44,0.47,0.0250,,,1.6850,38.97,38.122,26.9163,26.9152,0.4179,90.0815,5.0956e+00,9.9990e+03,,,,,,,
CalCOFI,0701JD,038,370,23-Jan-2007 9:40:57 AM,23-Jan-2007 1:40:57 AM,33.15682,-120.00584,086.7 055.0,086.7,055.0,448.000,451.680,6.6822,6.6835,34.2992,34.2979,34.2977,34.2978,0.38764,0.44,0.47,0.0251,,,1.6796,38.81,37.956,26.9155,26.9141,0.4189,90.0590,5.0612e+00,9.9990e+03,,,,,,,
CalCOFI,0701JD,038,370,23-Jan-2007 9:40:58 AM,23-Jan-2007 1:40:58 AM,33.15682,-120.00584,086.7 055.0,086.7,055.0,447.000,450.670,6.6888,6.6899,34.2990,34.2977,34.2975,34.2976,0.38694,0.44,0.47,0.0252,,,1.6678,38.47,37.592,26.9144,26.9131,0.4180,90.0784,5.4274e+00,9.9990e+03,,,,,,,
CalCOFI,0701JD,038,370,23-Jan-2007 9:40:59 AM,23-Jan-2007 1:40:59 AM,33.15682,-120.00584,086.7 055.0,086.7,055.0,446.000,449.661,6.6925,6.6931,34.2988,34.2975,34.2973,34.2974,0.38850,0.44,0.47,0.0252,,,1.6855,38.99,38.138,26.9138,26.9125,0.4177,90.0852,4.8030e+00,9.9990e+03,,,,,,,
CalCOFI,0701JD,038,370,23-Jan-2007 9:41:00 AM,23-Jan-2007 1:41:00 AM,33.15682,-120.00584,086.7 055.0,086.7,055.0,445.000,448.652,6.6948,6.6953,34.2986,34.2973,34.2972,34.2973,0.38876,0.44,0.47,0.0254,,,1.6751,38.68,37.817,26.9133,26.9121,0.4175,90.0885,5.2285e+00,9.9990e+03,,,,,,,
CalCOFI,0701JD,038,370,23-Jan-2007 9:41:01 AM,23-Jan-2007 1:41:01 AM,33.15682,-120.00584,086.7 055.0,086.7,055.0,444.000,447.642,6.6973,6.6979,34.2985,34.2972,34.2971,34.2972,0.38964,0.44,0.47,0.0248,,,1.6866,39.02,38.171,26.9129,26.9117,0.4182,90.0746,5.4140e+00,9.9990e+03,,,,,,,
CalCOFI,0701JD,038,370,23-Jan-2007 9:41:02 AM,23-Jan-2007 1:41:02 AM,33.15682,-120.00584,086.7 055.0,086.7,055.0,443.000,446.633,6.7100,6.7116,34.2991,34.2978,34.2970,34.2971,0.39097,0.44,0.47,0.0251,,,1.6729,38.62,37.749,26.9116,26.9098,0.4180,90.0783,5.6741e+00,9.9990e+03,,,,,,,
CalCOFI,0701JD,038,370,23-Jan-2007 9:41:03 AM,23-Jan-2007 1:41:03 AM,33.15682,-120.00584,086.7 055.0,086.7,055.0,442.000,445.624,6.7244,6.7254,34.2984,34.2971,34.2967,34.2968,0.39092,0.44,0.47,0.0246,,,1.6616,38.28,37.401,26.9092,26.9077,0.4183,90.0709,5.2180e+00,9.9990e+03,,,,,,,
CalCOFI,0701JD,038,370,23-Jan-2007 9:41:05 AM,23-Jan-2007 1:41:05 AM,33.15682,-120.00584,086.7 055.0,086.7,055.0,441.000,444.615,6.7320,6.7314,34.2984,34.2971,34.2969,34.2970,0.39161,0.44,0.47,0.0252,,,1.6657,38.40,37.527,26.9081,26.9070,0.4183,90.0711,5.3673e+00,9.9990e+03,,,,,,,
CalCOFI,0701JD,038,370,23-Jan-2007 9:41:06 AM,23-Jan-2007 1:41:06 AM,33.15682,-120.00584,086.7 055.0,086.7,055.0,440.000,443.605,6.7354,6.7356,34.2983,34.2970,34.2970,34.2971,0.39270,0.44,0.48,0.0245,,,1.6698,38.52,37.653,26.9076,26.9065,0.4180,90.0775,5.0701e+00,9.9990e+03,,,,,,,
CalCOFI,0701JD,038,370,23-Jan-2007 9:41:07 AM,23-Jan-2007 1:41:07 AM,33.15682,-120.00584,086.7 055.0,086.7,055.0,439.000,442.596,6.7390,6.7404,34.2984,34.2971,34.2970,34.2971,0.39349,0.45,0.48,0.0253,,,1.6711,38.56,37.694,26.9072,26.9059,0.4175,90.0885,5.0811e+00,9.9990e+03,,,,,,,
CalCOFI,0701JD,038,370,23-Jan-2007 9:41:09 AM,23-Jan-2007 1:41:09 AM,33.15682,-120.00584,086.7 055.0,086.7,055.0,438.000,441.587,6.7410,6.7427,34.2983,34.2970,34.2968,34.2969,0.39468,0.45,0.48,0.0247,,,1.6476,37.87,36.969,26.9068,26.9054,0.4178,90.0819,5.2338e+00,9.9990e+03,,,,,,,
CalCOFI,0701JD,038,370,23-Jan-2007 9:41:10 AM,23-Jan-2007 1:41:10 AM,33.15682,-120.00584,086.7 055.0,086.7,055.0,437.000,440.577,6.7492,6.7488,34.2979,34.2966,34.2965,34.2966,0.39539,0.45,0.48,0.0251,,,1.6534,38.04,37.148,26.9053,26.9044,0.4174,90.0908,5.2792e+00,9.9990e+03,437,6.78 ,34.296,  .46,,,37.6
CalCOFI,0701JD,038,370,23-Jan-2007 9:41:35 AM,23-Jan-2007 1:41:35 AM,33.15682,-120.00582,086.7 055.0,086.7,055.0,436.000,439.568,6.7711,6.7703,34.2978,34.2965,34.2965,34.2966,0.39884,0.45,0.48,0.0252,,,1.6665,38.43,37.552,26.9024,26.9014,0.4181,90.0763,5.0133e+00,9.9990e+03,,,,,,,
CalCOFI,0701JD,038,370,23-Jan-2007 9:42:40 AM,23-Jan-2007 1:42:40 AM,33.15682,-120.00568,086.7 055.0,086.7,055.0,435.000,438.559,6.7862,6.7878,34.2975,34.2962,34.2960,34.2961,0.40077,0.45,0.49,0.0252,,,1.6746,38.67,37.801,26.9001,26.8986,0.4187,90.0621,5.3984e+00,9.9990e+03,,,,,,,
CalCOFI,0701JD,038,370,23-Jan-2007 9:42:40 AM,23-Jan-2007 1:42:40 AM,33.15682,-120.00568,086.7 055.0,086.7,055.0,434.000,437.550,6.7954,6.7968,34.2973,34.2960,34.2961,34.2962,0.40122,0.45,0.49,0.0254,,,1.6255,37.22,36.287,26.8986,26.8975,0.4185,90.0671,5.1197e+00,9.9990e+03,,,,,,,
CalCOFI,0701JD,038,370,23-Jan-2007 9:42:41 AM,23-Jan-2007 1:42:41 AM,33.15682,-120.00568,086.7 055.0,086.7,055.0,433.000,436.540,6.7989,6.7998,34.2967,34.2954,34.2956,34.2957,0.40305,0.46,0.49,0.0248,,,1.6453,37.81,36.898,26.8977,26.8967,0.4188,90.0607,5.6081e+00,9.9990e+03,,,,,,,
CalCOFI,0701JD,038,370,23-Jan-2007 9:42:42 AM,23-Jan-2007 1:42:42 AM,33.15682,-120.00568,086.7 055.0,086.7,055.0,432.000,435.531,6.8094,6.8110,34.2965,34.2952,34.2951,34.2952,0.40540,0.46,0.49,0.0248,,,1.6738,38.64,37.777,26.8961,26.8948,0.4194,90.0469,5.3241e+00,9.9990e+03,,,,,,,